{"data":{"norad_id":53934,"epoch":"2026-05-25T04:34:36.240672Z","epoch_age_seconds":58296,"freshness":"FRESH","line1":"1 53934U 22119BA  26145.19069723  .00000362  00000+0  40847-4 0  9991","line2":"2 53934  53.2136 315.7424 0001260  87.9346 272.1791 15.08835429203603","mean_motion":15.08835429,"eccentricity":0.000126,"inclination_deg":53.2136,"raan_deg":315.7424,"arg_perigee_deg":87.9346,"mean_anomaly_deg":272.1791,"bstar":4.0847e-5,"rev_number":20360,"period_min":95.437843804767,"perigee_km":538.88570602827,"apogee_km":540.62901540717,"semimajor_km":6917.8943607177,"source":"CELESTRAK","updated_at":"2026-05-25T13:38:17.616120Z"}}